Stündliche Wetter Abejorral

Heute, 25 Juni, Freitag

Zeit Temperatur Niederschläge Wind Luftdruck Luftfeuchtigkeit
00:00 +12°C° 1.7 mm 0 m/S 585 mmHg 99%
01:00 +12°C° 1.7 mm 0 m/S 585 mmHg 99%
02:00 +12°C° 1 mm 0 m/S 585 mmHg 99%
03:00 +12°C° 1 mm 0 m/S 585 mmHg 99%
04:00 +11°C° 1 mm 0 m/S 585 mmHg 99%
05:00 +12°C° 0.3 mm 0 m/S 585 mmHg 99%
06:00 +12°C° 0.3 mm 0 m/S 586 mmHg 98%
07:00 +12°C° 0.3 mm 0 m/S 586 mmHg 98%
08:00 +13°C° 0.3 mm 0 m/S 586 mmHg 94%
09:00 +14°C° 0.3 mm 0 m/S 587 mmHg 90%
10:00 +15°C° 0.3 mm 0 m/S 587 mmHg 86%
11:00 +16°C° 0.6 mm 0 m/S 587 mmHg 84%
12:00 +16°C° 0.6 mm 0 m/S 587 mmHg 82%
13:00 +17°C° 0.6 mm 0 m/S 586 mmHg 80%
14:00 +17°C° 0.9 mm 0 m/S 586 mmHg 83%
15:00 +16°C° 0.9 mm 0 m/S 585 mmHg 87%
16:00 +16°C° 0.9 mm 0 m/S 585 mmHg 90%
17:00 +15°C° 1.4 mm 0 m/S 585 mmHg 93%
18:00 +13°C° 1.4 mm 0 m/S 585 mmHg 95%
19:00 +13°C° 1.4 mm 1 m/S 585 mmHg 98%
20:00 +12°C° 1.5 mm 0 m/S 585 mmHg 98%
21:00 +12°C° 1.5 mm 0 m/S 585 mmHg 98%
22:00 +12°C° 1.5 mm 0 m/S 586 mmHg 98%
23:00 +11°C° 0.9 mm 0 m/S 585 mmHg 98%

Morgen, 26 Juni, Samstag

Zeit Temperatur Niederschläge Wind Luftdruck Luftfeuchtigkeit
00:00 +11°C° 0.9 mm 0 m/S 585 mmHg 98%
01:00 +11°C° 0.9 mm 0 m/S 585 mmHg 99%
02:00 +11°C° 2.1 mm 0 m/S 585 mmHg 99%
03:00 +11°C° 2.1 mm 0 m/S 585 mmHg 99%
04:00 +11°C° 2.1 mm 0 m/S 584 mmHg 99%
05:00 +11°C° 0.9 mm 0 m/S 585 mmHg 99%
06:00 +11°C° 0.9 mm 0 m/S 585 mmHg 99%
07:00 +12°C° 0.9 mm 0 m/S 586 mmHg 98%
08:00 +13°C° 0.3 mm 0 m/S 586 mmHg 95%
09:00 +14°C° 0.3 mm 0 m/S 587 mmHg 92%
10:00 +16°C° 0.3 mm 1 m/S 587 mmHg 89%
11:00 +15°C° 0.6 mm 0 m/S 587 mmHg 86%
12:00 +16°C° 0.6 mm 0 m/S 587 mmHg 83%
13:00 +17°C° 0.6 mm 0 m/S 587 mmHg 79%
14:00 +17°C° 0.6 mm 0 m/S 586 mmHg 81%
15:00 +16°C° 0.6 mm 0 m/S 586 mmHg 82%
16:00 +16°C° 0.6 mm 0 m/S 585 mmHg 84%
17:00 +15°C° 0.6 mm 0 m/S 585 mmHg 88%
18:00 +14°C° 0.6 mm 0 m/S 585 mmHg 93%
19:00 +12°C° 0.6 mm 0 m/S 585 mmHg 98%
20:00 +12°C° 0.7 mm 0 m/S 585 mmHg 98%
21:00 +12°C° 0.7 mm 0 m/S 585 mmHg 98%
22:00 +12°C° 0.7 mm 0 m/S 585 mmHg 98%
23:00 +11°C° 0.4 mm 0 m/S 585 mmHg 98%

übermorgen, 27 Juni, Sonntag

Zeit Temperatur Niederschläge Wind Luftdruck Luftfeuchtigkeit
00:00 +11°C° 0.4 mm 0 m/S 585 mmHg 98%
01:00 +11°C° 0.4 mm 0 m/S 585 mmHg 98%
02:00 +11°C° 0.1 mm 0 m/S 585 mmHg 98%
03:00 +11°C° 0.1 mm 0 m/S 585 mmHg 98%
04:00 +11°C° 0.1 mm 0 m/S 584 mmHg 97%
05:00 +11°C° 0 mm 0 m/S 585 mmHg 97%
06:00 +11°C° 0 mm 0 m/S 585 mmHg 97%
07:00 +11°C° 0 mm 0 m/S 585 mmHg 97%
08:00 +14°C° 0 mm 0 m/S 586 mmHg 85%
09:00 +18°C° 0 mm 1 m/S 587 mmHg 74%
10:00 +20°C° 0 mm 1 m/S 588 mmHg 63%
11:00 +20°C° 0.3 mm 1 m/S 587 mmHg 64%
12:00 +21°C° 0.3 mm 1 m/S 587 mmHg 66%
13:00 +21°C° 0.3 mm 1 m/S 587 mmHg 67%
14:00 +20°C° 0.7 mm 1 m/S 586 mmHg 72%
15:00 +20°C° 0.7 mm 1 m/S 585 mmHg 77%
16:00 +19°C° 0.7 mm 1 m/S 585 mmHg 82%
17:00 +18°C° 0.6 mm 1 m/S 585 mmHg 87%
18:00 +15°C° 0.6 mm 1 m/S 585 mmHg 92%
19:00 +14°C° 0.6 mm 1 m/S 585 mmHg 96%
20:00 +13°C° 0.5 mm 1 m/S 585 mmHg 97%
21:00 +13°C° 0.5 mm 1 m/S 585 mmHg 97%
22:00 +13°C° 0.5 mm 1 m/S 585 mmHg 97%
23:00 +12°C° 0.2 mm 0 m/S 585 mmHg 97%

28 Juni, Montag

Zeit Temperatur Niederschläge Wind Luftdruck Luftfeuchtigkeit
00:00 +12°C° 0.2 mm 0 m/S 585 mmHg 97%
01:00 +12°C° 0.2 mm 0 m/S 585 mmHg 97%
02:00 +11°C° 0.2 mm 0 m/S 585 mmHg 97%
03:00 +11°C° 0.2 mm 0 m/S 585 mmHg 98%
04:00 +11°C° 0.2 mm 0 m/S 585 mmHg 98%
05:00 +11°C° 0 mm 0 m/S 585 mmHg 97%
06:00 +11°C° 0 mm 0 m/S 586 mmHg 97%
07:00 +12°C° 0 mm 0 m/S 586 mmHg 96%
08:00 +14°C° 0.1 mm 0 m/S 587 mmHg 88%
09:00 +16°C° 0.1 mm 1 m/S 587 mmHg 81%
10:00 +19°C° 0.1 mm 1 m/S 588 mmHg 73%
11:00 +19°C° 0.7 mm 1 m/S 588 mmHg 75%
12:00 +19°C° 0.7 mm 1 m/S 587 mmHg 78%
13:00 +18°C° 0.7 mm 0 m/S 587 mmHg 81%
14:00 +20°C° 0.7 mm 1 m/S 587 mmHg 80%
15:00 +20°C° 0.7 mm 1 m/S 586 mmHg 80%
16:00 +20°C° 0.7 mm 1 m/S 586 mmHg 80%
17:00 +18°C° 0.6 mm 1 m/S 586 mmHg 86%
18:00 +15°C° 0.6 mm 1 m/S 585 mmHg 92%
19:00 +13°C° 0.6 mm 1 m/S 585 mmHg 97%
20:00 +13°C° 0.3 mm 1 m/S 585 mmHg 97%
21:00 +12°C° 0.3 mm 1 m/S 586 mmHg 97%
22:00 +12°C° 0.3 mm 1 m/S 586 mmHg 97%
23:00 +12°C° 0.1 mm 1 m/S 586 mmHg 97%

29 Juni, Dienstag

Zeit Temperatur Niederschläge Wind Luftdruck Luftfeuchtigkeit
00:00 +12°C° 0.1 mm 1 m/S 585 mmHg 96%
01:00 +11°C° 0.1 mm 0 m/S 585 mmHg 96%
02:00 +10°C° 0 mm 0 m/S 585 mmHg 96%
03:00 +10°C° 0 mm 0 m/S 585 mmHg 96%
04:00 +10°C° 0 mm 0 m/S 585 mmHg 96%
05:00 +11°C° 0 mm 0 m/S 586 mmHg 95%
06:00 +11°C° 0 mm 0 m/S 586 mmHg 94%
07:00 +11°C° 0 mm 0 m/S 586 mmHg 93%
08:00 +13°C° 0.1 mm 0 m/S 587 mmHg 84%
09:00 +16°C° 0.1 mm 1 m/S 588 mmHg 76%
10:00 +19°C° 0.1 mm 1 m/S 589 mmHg 67%
11:00 +20°C° 0.3 mm 1 m/S 589 mmHg 65%
12:00 +21°C° 0.3 mm 1 m/S 588 mmHg 63%
13:00 +22°C° 0.3 mm 1 m/S 588 mmHg 61%
14:00 +21°C° 0.3 mm 1 m/S 588 mmHg 63%
15:00 +21°C° 0.3 mm 1 m/S 587 mmHg 65%
16:00 +21°C° 0.3 mm 1 m/S 587 mmHg 67%
17:00 +19°C° 0.2 mm 1 m/S 586 mmHg 77%
18:00 +16°C° 0.2 mm 1 m/S 586 mmHg 86%
19:00 +13°C° 0.2 mm 1 m/S 586 mmHg 96%
20:00 +13°C° 0.1 mm 1 m/S 586 mmHg 96%
21:00 +12°C° 0.1 mm 1 m/S 586 mmHg 96%
22:00 +12°C° 0.1 mm 1 m/S 586 mmHg 96%
23:00 +12°C° 0 mm 1 m/S 586 mmHg 95%

30 Juni, Mittwoch

Zeit Temperatur Niederschläge Wind Luftdruck Luftfeuchtigkeit
00:00 +11°C° 0 mm 1 m/S 586 mmHg 94%
01:00 +11°C° 0 mm 1 m/S 585 mmHg 93%
02:00 +11°C° 0 mm 1 m/S 585 mmHg 93%
03:00 +11°C° 0 mm 1 m/S 585 mmHg 92%
04:00 +10°C° 0 mm 1 m/S 584 mmHg 92%
05:00 +10°C° 0 mm 0 m/S 585 mmHg 90%
06:00 +11°C° 0 mm 0 m/S 586 mmHg 88%
07:00 +12°C° 0 mm 0 m/S 586 mmHg 86%
08:00 +15°C° 0 mm 1 m/S 587 mmHg 77%
09:00 +18°C° 0 mm 1 m/S 588 mmHg 67%
10:00 +21°C° 0 mm 1 m/S 589 mmHg 58%
11:00 +21°C° 0.1 mm 1 m/S 588 mmHg 55%
12:00 +22°C° 0.1 mm 1 m/S 588 mmHg 52%
13:00 +23°C° 0.1 mm 1 m/S 588 mmHg 50%
14:00 +22°C° 0.3 mm 1 m/S 587 mmHg 57%
15:00 +21°C° 0.3 mm 1 m/S 587 mmHg 65%
16:00 +20°C° 0.3 mm 1 m/S 586 mmHg 72%
17:00 +18°C° 0.7 mm 1 m/S 586 mmHg 80%
18:00 +15°C° 0.7 mm 1 m/S 585 mmHg 87%
19:00 +13°C° 0.7 mm 1 m/S 585 mmHg 94%
20:00 +13°C° 0.5 mm 1 m/S 585 mmHg 95%
21:00 +13°C° 0.5 mm 1 m/S 586 mmHg 96%
22:00 +11°C° 0.5 mm 0 m/S 586 mmHg 97%
23:00 +11°C° 0.2 mm 0 m/S 586 mmHg 97%
Mehr zeigen

Wir brauchen deine Erlaubnis

Meteoprog und unser Service Anbieter werden persönliche Daten aufbewahren, so wie Cookies, Geräte Bezeichnung oder ähnliche Technologien von deinem Gerät und Prozess, so wie Persönliche Daten Inhalte und Werbungen, genauso wie social Media und den Verkehr zu analysieren.

  • Aufbewahrung und/oder Zugang zu deiner Geräte Informationen.

    Cookies, Geräte Bezeichnung oder andere Informationen, können aufbewahrt oder Zugang zu deinem Gerät erhalten, für den Grund, der oben angegeben wird.

  • Personalisierte Werbung und Inhalte, Messungen, Einblick in das Publikum und Produkt Entwicklung.

    Werbungen und Inhalte können personalisiert werden, basierend auf ein Profil. Mehr Daten können besser personalisierte Werbungen und Inhalte hinzufügen. Werbung und Inhalte können gezeigt und gemessen werden. Einblicke über das Publikum, welche die Werbung gesehen haben und den Inhalt, können abgeleitet werden. So wie Daten können genutzt werden, um es zu verbessern oder die Benutzer Erfahrung zu verbessern das System und die Software.

Wenn du “Ich stimme zu” klickst, erlaubst du uns, die Cookies zu benutzen die Geräte Bezeichnung, den Web oder ähnliche Technologien zu benutzen. Deine Settings, können in deinem Gerät bei deinem Browser geändert werden.

Für den bestimmten Zweck, berechtigten Interessen beruhen darauf, mehr als auf den Inhalt. Du kannst mehr darüber in unseren Privaten und Cookie Politik lesen.